Content
SEND FEEDBACK

Daily
Averages
Monthly
Summary
Mexico

LEONA VICARIO, QUINTANA ROO


Home > North America > Mexico > Quintana Roo
Elevation: 26 feet     Latitude: 20 59N     Longitude: 087 12W

WEATHER
 
SELECT A DAY
Number of Records: 163,700;   Date Range: 1/1/95 - 7/27/14
 
SHARE

PRINT THIS DATA

[ ← Previous Day ]
WEATHER ALMANAC - MAY 6, 2013
[ Next Day → ]
[ °C ]   °F
Weather ElementAverageHighLow
Temperature74.1 °F80.6 °F (9:44 am)66.2 °F (3:46 am)
Dewpoint64.8 °F66.2 °F (8:43 am)64.4 °F (1:44 am)
Humidity73.7 %94 % (3:46 am)58 % (9:44 am)
Barometer30.02 in30.06 in (8:43 am)29.97 in (3:46 am)
Wind Speed4 mph11.5 mph (2:49 pm)
Weather ElementAverage
Visibility7 mi
Wind DirectionESE (123.5 °)

Weather ElementTotal
Precipitation---
Cooling Degree Days8.4 (Base 65)
Growing Degree Days23.4 (Base 50)
Averaged from 23 records on May 6, 2013
WEATHER CONDITIONS BREAKOUT
WIND DIRECTION BREAKOUT
WEATHER BY HOUR - MAY 6, 2013
[ °C ]   °F
Local TimeTemperatureDewpointHumidityBarometerVisibilityWind DirectionWind SpeedGust SpeedPrecipitationEventsConditions
1:44 AM69.8 °F64.4 °F83 %30.00 in7.0 miCalmMostly Cloudy
2:43 AM68.0 °F64.4 °F88 %29.99 in7.0 miCalmMostly Cloudy
3:46 AM66.2 °F64.4 °F94 %29.97 in7.0 miCalmScattered Clouds
4:45 AM66.2 °F64.4 °F94 %30.00 in7.0 miNW (310°)5.8 mphPartly Cloudy
5:44 AM66.2 °F64.4 °F94 %30.01 in7.0 miNW (310°)5.8 mphScattered Clouds
6:43 AM68.0 °F64.4 °F88 %29.99 in7.0 miNNW (340°)5.8 mphMostly Cloudy
7:41 AM69.8 °F64.4 °F83 %30.05 in7.0 miNW (320°)4.6 mphMostly Cloudy
8:43 AM77.0 °F66.2 °F69 %30.06 in7.0 miNNW (340°)4.6 mphScattered Clouds
9:44 AM80.6 °F64.4 °F58 %30.05 in7.0 miENE (70°)3.5 mphMostly Cloudy
10:41 AM80.6 °F64.4 °F58 %30.06 in7.0 miNorth (360°)5.8 mphMostly Cloudy
11:44 AM80.6 °F66.2 °F61 %30.06 in7.0 miNNE (20°)6.9 mphMostly Cloudy
12:43 PM80.6 °F66.2 °F61 %30.04 in7.0 miENE (70°)8.1 mphMostly Cloudy
1:40 PM80.6 °F66.2 °F61 %30.02 in7.0 miNE (40°)6.9 mphMostly Cloudy
2:49 PM80.6 °F66.2 °F61 %30.00 in7.0 miENE (60°)11.5 mphOvercast
3:40 PM78.8 °F64.4 °F61 %29.99 in7.0 miESE (110°)4.6 mphMostly Cloudy
4:41 PM78.8 °F64.4 °F61 %29.98 in7.0 miEast (80°)6.9 mphMostly Cloudy
5:41 PM77.0 °F64.4 °F65 %29.98 in7.0 miNE (50°)4.6 mphMostly Cloudy
6:40 PM77.0 °F64.4 °F65 %30.00 in7.0 miNorth (360°)5.8 mphMostly Cloudy
7:50 PM75.2 °F64.4 °F69 %30.01 in7.0 miCalmMostly Cloudy
8:43 PM73.4 °F64.4 °F73 %30.02 in7.0 miCalmMostly Cloudy
9:49 PM71.6 °F64.4 °F78 %30.03 in7.0 miCalmMostly Cloudy
10:43 PM69.8 °F64.4 °F83 %30.04 in7.0 miCalmMostly Cloudy
11:52 PM68.0 °F64.4 °F88 %30.04 in7.0 miCalmScattered Clouds
Hourly data recorded from MMUN, located miles away from Leona Vicario, Quintana Roo







STORIES FROM OUR PARTNERS